STARLINK-37614, 69041

Orbit data source: Space-Track

STARLINK-37614, 69041 is a payload satellite owned by SpaceX/Seattle (US) in SSO that was launched on Wed, 06 May 2026 UTC via an FALCON 9 launch vehicle from the Air Force Western Test Range (AFWTR). Payload-class satellites include a variety of spacecraft equipped with specific instruments for various scientific and technological missions. These include communications satellites like Starlink; space stations such as the ISS; scientific satellites like the Hubble; Earth observation satellites from companies like Planet Labs, Umbra, and HawkEye 360; GPS; miniature CubeSats for education and research; and military/defense satellites.

Loading next visibility...
Identifier
69041, 2026-101S
Orbit
SSO
Country
Flag of USUS
Related business
Manufacturer
SpaceX/Seattle
Mission
Operational Commercial Communications
Bus & Motor
STARLINK V2MO, Unknown motor
Mass
575 kg wet, ~530 kg dry
Launch date (UTC)
2026-05-06 (3 months ago)
Launch vehicle
FALCON 9
Launch site
Air Force Western Test Range (AFWTR)
Object type
Payload
Rocket body
Debris
Shape & HBR
Box + 2 Pan, 17.7 m
Radar Cross Section
36.964 m², Large (>1 m²)

Expand to show TLE details & history
Last TLE update: 13 hours ago

TLE from 13 hours ago
0 STARLINK-37614
1 69041U 26101S   26206.57468347  .00022155  00000-0  68654-3 0  9997
2 69041  97.2866  60.8454 0002356  84.4022 275.7489 15.33445184 12455
Epoch: 2026-07-25T13:47Z
TLE epoch observation values (Epoch: 2026-07-25T13:47:32.651Z)
Latitude
-0.00008°
Longitude
-89.32564°
Altitude
468.493 km
Speed
7.632 km/s
True Right ascension
04h 03m 22s
True Declination
0° 00' 00"
Sunlit
Object was in daylight at epoch
Visualization orbit readout
Latitude
Unknown
Longitude
Unknown
Altitude
Unknown
Speed
Unknown
Apparent Right ascension
Unknown
Apparent Declination
Unknown
Sunlit
N/A
Visualization observer readout
Local Sidereal Time
16:19:28
Azimuth
Unknown
Elevation
Unknown
Doppler factor
Unknown
Orbital elements
Apogee altitude
464.097 km
Perigee altitude
460.874 km
Semi-major axis
6,840.622 km
Eccentricity
0.00024
Inclination
97.2866°
RAAN
60.8454°
Arg. of periapsis
84.4022°
True anomaly
275.72204°
Mean anomaly
275.7489°
Eccentric anomaly
275.73547°
Mean motion
3.83619 °/min
Orbital period
93.84 mins
BSTAR
0.00068654
Loading maneuver chart data...
Computing Atmospheric mass density...
Loading historical data...
Loading historical data...
Loading historical data...
Loading historical data...
Loading historical data...
Loading historical data...
Loading historical data...

Documentation

Showing up to 5 results
|